STARLINK-33590

Last updated on Thu Jul 03 2025 00:02:06 GMT+0000 (Coordinated Universal Time)

1 64316U 25123AB 25183.58335648 .00058017 00000+0 94036-3 0 9999 2 64316 69.9997 120.0576 0003339 269.4808 344.5606 15.52475579 5066
UTC large
Height (km)
Speed (km/s)
/
Latitude / Longitude
Inclination (degrees)
Orbital Period (minutes)
Azimuth
Elevation
Range (km)
Doppler Factor

Next 0 passes for location: London (51.5072 / 0.1276)

Sorry there are no passes over London.